Location: Nelson
(41.2830°S, 173.2830°E)
Time: 22:19:22
(UTC+13:00)

Meteor 2-10 Rocket - Pass Details

Date: 24 January 2019
Orbit: 733 x 885 km, 81.2° (Epoch: 15 October)

Event Time Altitude Azimuth Distance (km) Brightness Sun altitude
Rises 21:33:12 0° 347° (NNW) 3,174 6.5 -7.0°
Reaches altitude 10° 21:35:30 10° 345° (NNW) 2,271 5.8 -7.4°
Maximum altitude 21:40:35 74° 260° (W) 810 3.8 -8.2°
Drops below altitude 10° 21:45:57 10° 174° (S) 2,385 6.5 -9.0°
Sets 21:48:25 0° 172° (S) 3,346 7.2 -9.4°
